EW8735 Weather Reports


time (UTC)temp
C
wind
direction
speed
KPH
gust
KPH
rain 1hr
cm
rain 24hr
cm
rain mn
cm
humidity
%
barometer
mb
20260506214536 27 303 0.0 0.0 0.00 0.00 0.00 40 1009.8
20260506213043 27 299 0.0 0.0 0.00 0.00 0.00 40 1009.8
20260506211543 27 270 0.0 0.0 0.00 0.00 0.00 37 1009.7
20260506210043 27 281 0.0 0.0 0.00 0.00 0.00 34 1009.7
20260506204533 27 256 0.0 0.0 0.00 0.00 0.00 31 1009.6
20260506203032 26 248 0.0 0.0 0.00 0.00 0.00 33 1009.8
20260506201534 26 258 0.0 0.0 0.00 0.00 0.00 37 1009.8
20260506200030 26 266 0.0 0.0 0.00 0.00 0.00 36 1009.9
20260506194522 25 282 0.0 0.0 0.00 0.00 0.00 40 1010.2
20260506193032 24 292 0.0 0.0 0.00 0.00 0.00 44 1010.5
20260506191516 23 4 0.0 0.0 0.00 0.00 0.00 47 1010.8
20260506190014 23 4 0.0 0.0 0.00 0.00 0.00 45 1010.9
20260506184511 23 4 0.0 0.0 0.00 0.00 0.00 47 1011.2
20260506183010 22 4 0.0 0.0 0.00 0.00 0.00 46 1011.4
20260506181523 22 8 0.0 0.0 0.00 0.00 0.00 45 1011.6
20260506180008 22 9 0.0 0.0 0.00 0.00 0.00 47 1011.9
20260506174504 22 9 0.0 0.0 0.00 0.00 0.00 48 1011.9
20260506173004 21 9 0.0 0.0 0.00 0.00 0.00 52 1011.9
20260506171609 21 14 0.0 0.0 0.00 0.00 0.00 49 1011.9
20260506170112 21 359 0.0 0.0 0.00 0.00 0.00 50 1011.9
20260506164554 20 350 0.0 0.0 0.00 0.00 0.00 53 1011.8
20260506163057 20 341 0.0 0.0 0.00 0.00 0.00 52 1012.0
20260506161550 20 341 0.0 0.0 0.00 0.00 0.00 53 1011.9
20260506160048 19 341 0.0 0.0 0.00 0.00 0.00 54 1011.9
20260506154605 19 359 0.0 0.0 0.00 0.00 0.00 56 1012.2
20260506153041 18 44 0.0 0.0 0.00 0.00 0.00 57 1012.1
20260506151538 17 54 0.0 0.0 0.00 0.00 0.00 59 1012.1
20260506150036 17 54 0.0 0.0 0.00 0.00 0.00 61 1012.1
20260506144536 16 49 0.0 0.0 0.00 0.00 0.00 63 1012.0
20260506143028 15 354 0.0 0.0 0.00 0.00 0.00 69 1011.9
20260506141523 13 14 0.0 0.0 0.00 0.00 0.00 74 1011.8
20260506140023 12 56 0.0 0.0 0.00 0.00 0.00 80 1011.5
20260506134520 11 54 0.0 0.0 0.00 0.00 0.00 83 1011.4
20260506133018 10 56 0.0 0.0 0.00 0.00 0.00 84 1011.2
20260506131517 10 60 0.0 0.0 0.00 0.00 0.00 84 1011.2
20260506130017 10 59 0.0 0.0 0.00 0.00 0.00 83 1011.1
20260506124514 10 59 0.0 0.0 0.00 0.00 0.00 83 1010.9
20260506123012 10 16 0.0 0.0 0.00 0.00 0.00 82 1010.7
20260506121509 10 16 0.0 0.0 0.00 0.00 0.00 81 1010.5
20260506120008 10 16 0.0 0.0 0.00 0.00 0.00 81 1010.3
20260506114506 10 16 0.0 0.0 0.00 0.00 0.00 79 1010.0
20260506113005 10 16 0.0 0.0 0.00 0.00 0.00 81 1010.0
20260506111503 9 16 0.0 0.0 0.00 0.00 0.00 82 1009.9
20260506110100 11 15 0.0 0.0 0.00 0.00 0.00 76 1009.8
20260506104630 11 16 0.0 0.0 0.00 0.00 0.00 77 1009.8
20260506103100 11 16 0.0 0.0 0.00 0.00 0.00 77 1009.7
20260506101553 12 16 0.0 0.0 0.00 0.00 0.00 77 1009.5
20260506100052 12 16 0.0 0.0 0.00 0.00 0.00 76 1009.4
20260506094551 12 16 0.0 0.0 0.00 0.00 0.00 76 1009.3
20260506093051 12 16 0.0 0.0 0.00 0.00 0.00 79 1009.3
20260506091549 12 16 0.0 0.0 0.00 0.00 0.00 80 1009.3
20260506090049 11 16 0.0 0.0 0.00 0.00 0.00 82 1009.3
20260506084545 12 16 0.0 0.0 0.00 0.00 0.00 78 1009.3
20260506083047 13 16 0.0 0.0 0.00 0.00 0.00 74 1009.3
20260506081538 14 16 0.0 0.0 0.00 0.00 0.00 71 1009.0
20260506073030 13 16 0.0 0.0 0.00 0.00 0.00 73 1008.8
20260506071527 13 16 0.0 0.0 0.00 0.00 0.00 73 1008.7
20260506061523 13 16 0.0 0.0 0.00 0.00 0.00 76 1008.5
20260506044526 16 16 0.0 0.0 0.00 0.00 0.00 66 1007.9
20260506043019 16 16 0.0 0.0 0.00 0.00 0.00 66 1007.8
20260506041518 16 16 0.0 0.0 0.00 0.00 0.00 67 1007.7
20260506040028 16 16 0.0 0.0 0.00 0.00 0.00 66 1007.5
20260506034518 16 16 0.0 0.0 0.00 0.00 0.00 68 1007.4
20260506033021 17 16 0.0 0.0 0.00 0.00 0.00 65 1007.2
20260506031517 19 16 0.0 0.0 0.00 0.00 0.00 60 1007.1
20260506030019 22 16 0.0 0.0 0.00 0.00 0.00 51 1007.1
20260506024526 22 16 0.0 0.0 0.00 0.00 0.00 47 1007.0
20260506023016 23 16 0.0 0.0 0.00 0.00 0.00 46 1007.0
20260506021528 23 16 0.0 0.0 0.00 0.00 0.00 44 1006.9
20260506020017 23 18 0.0 0.0 0.00 0.00 0.00 44 1006.7
20260506014522 24 18 0.0 0.0 0.00 0.00 0.00 41 1006.8
20260506013015 24 15 0.0 0.0 0.00 0.00 0.00 40 1006.8
20260506011522 25 15 0.0 0.0 0.00 0.00 0.00 38 1006.7
20260506010015 25 327 0.0 0.0 0.00 0.00 0.00 37 1006.5
20260506004513 25 324 0.0 0.0 0.00 0.00 0.00 35 1006.7
20260506003012 25 324 0.0 0.0 0.00 0.00 0.00 35 1006.6
20260506001514 25 37 0.0 0.0 0.00 0.00 0.00 35 1006.6
20260506000012 25 37 0.0 0.0 0.00 0.00 0.00 36 1006.7
20260505234513 26 38 0.0 0.0 0.00 0.00 0.00 34 1006.8
20260505233011 26 37 0.0 0.0 0.00 0.00 0.00 33 1006.8
20260505231515 26 38 0.0 0.0 0.00 0.00 0.00 33 1006.9
20260505230010 26 37 0.0 0.0 0.00 0.00 0.00 34 1007.0
20260505224519 26 37 0.0 0.0 0.00 0.00 0.00 34 1007.1
20260505223012 27 38 0.0 0.0 0.00 0.00 0.00 35 1007.1
20260505221507 26 37 0.0 0.0 0.00 0.00 0.00 33 1007.2
20260505220006 26 37 0.0 0.0 0.00 0.00 0.00 36 1007.3